Columbus, OH

12:42 PM EDT on August 31, 2016 (GMT -0400)
Port Columbus International

Weather History for KCMH - October, 2012

Change the Weather History Date:

Friday, October 12, 2012

  Actual Average Record
Temperature  
Mean Temperature 50 °F 56 °F  
Max Temperature 58 °F 67 °F 84 °F (1928)
Min Temperature 41 °F 46 °F 27 °F (1964)
Degree Days  
Heating Degree Days 15 9  
Month to date heating degree days 133 92  
Since 1 July heating degree days 219 161  
Cooling Degree Days 0 1  
Month to date cooling degree days 3 13  
Year to date cooling degree days 1424 1024  
Moisture  
Dew Point 32 °F    
Average Humidity 53    
Maximum Humidity 76    
Minimum Humidity 30    
Precipitation  
Precipitation T in 0.08 in 0.71 in (2001)
Month to date precipitation 0.97 1.04  
Year to date precipitation 27.82 31.57  
Snow  
Snow 0.00 in 0.00 in - ()
Month to date snowfall 0.0 0.0  
Since 1 July snowfall 0.0 0.0  
Since 1 September snowfall 0.0 0.0  
Snow Depth 0.00 in    
Sea Level Pressure  
Sea Level Pressure 30.32 in    
Wind  
Wind Speed 6 mph (NE)    
Max Wind Speed 15 mph    
Max Gust Speed 20 mph    
Visibility 10 miles    
Events      
T = Trace of Precipitation, MM = Missing Value Source: NWS Daily Summary

Daily Weather History Graph

Daily Weather History Graph

Search for Another Location

Airport or City:

Trip Planner

Search our weather history database for the weather conditions in past years. The results will help you decide how hot, cold, wet, or windy it might be!

Date:

Astronomy

Oct. 12, 2012 Rise Set
Actual Time 7:39 AM EDT 6:55 PM EDT
Civil Twilight 7:12 AM EDT 7:22 PM EDT
Nautical Twilight 6:40 AM EDT 7:54 PM EDT
Astronomical Twilight 6:09 AM EDT 8:25 PM EDT
Moon 4:21 AM EDT (10/12) 5:04 PM EDT (10/12)
Length of Visible Light 12h 10m
Length of Day
11h 16m
Waning Crescent, 11% of the Moon is Illuminated
Oct 12
Waning Crescent
Oct 15
New
Oct 21
First Quarter
Oct 29
Full
Nov 6
Last Quarter

Hourly Weather History & Observations

Time (EDT) Temp. Windchill Dew Point Humidity Pressure Visibility Wind Dir Wind Speed Gust Speed Precip Events Conditions
12:51 AM 46.0 °F - 35.1 °F 66% 30.21 in 10.0 mi Calm Calm - N/A   Scattered Clouds
1:51 AM 42.1 °F - 36.0 °F 79% 30.21 in 10.0 mi Calm Calm - N/A   Scattered Clouds
2:51 AM 44.6 °F - 33.8 °F 66% 30.18 in 10.0 mi Calm Calm - N/A   Scattered Clouds
3:51 AM 45.0 °F 43.5 °F 34.0 °F 65% 30.19 in 10.0 mi SSE 3.5 mph - N/A   Mostly Cloudy
4:51 AM 46.0 °F - 35.1 °F 66% 30.21 in 10.0 mi Calm Calm - 0.00 in   Mostly Cloudy
5:51 AM 44.6 °F - 37.4 °F 76% 30.22 in 10.0 mi Calm Calm - N/A   Overcast
6:51 AM 46.0 °F 42.5 °F 37.0 °F 71% 30.26 in 10.0 mi North 6.9 mph - N/A   Overcast
7:51 AM 46.9 °F - 39.0 °F 74% 30.29 in 10.0 mi North 13.8 mph - N/A   Overcast
8:51 AM 46.4 °F 41.5 °F 35.6 °F 66% 30.32 in 10.0 mi North 10.4 mph - N/A   Overcast
9:51 AM 46.4 °F 42.9 °F 33.8 °F 62% 30.35 in 10.0 mi NNE 6.9 mph - N/A   Overcast
10:51 AM 48.0 °F - 34.0 °F 58% 30.39 in 10.0 mi North 10.4 mph - N/A   Scattered Clouds
11:51 AM 51.8 °F - 33.8 °F 50% 30.39 in 10.0 mi Variable 6.9 mph - N/A   Scattered Clouds
12:51 PM 55.0 °F - 30.0 °F 38% 30.38 in 10.0 mi North 10.4 mph - N/A   Scattered Clouds
1:51 PM 55.9 °F - 30.0 °F 37% 30.38 in 10.0 mi Variable 5.8 mph - N/A   Scattered Clouds
2:51 PM 57.2 °F - 26.6 °F 31% 30.35 in 10.0 mi NNW 8.1 mph - N/A   Partly Cloudy
3:51 PM 57.2 °F - 26.6 °F 31% 30.35 in 10.0 mi Variable 4.6 mph - N/A   Partly Cloudy
4:51 PM 57.9 °F - 26.1 °F 30% 30.34 in 10.0 mi ENE 6.9 mph - N/A   Clear
5:51 PM 57.0 °F - 26.1 °F 30% 30.35 in 10.0 mi East 5.8 mph - N/A   Clear
6:51 PM 53.6 °F - 24.8 °F 33% 30.35 in 10.0 mi NE 5.8 mph - N/A   Clear
7:51 PM 50.0 °F - 27.0 °F 41% 30.38 in 10.0 mi NE 4.6 mph - N/A   Clear
8:51 PM 46.9 °F - 28.0 °F 48% 30.38 in 10.0 mi ENE 5.8 mph - N/A   Clear
9:51 PM 46.4 °F 43.5 °F 28.4 °F 50% 30.38 in 10.0 mi ENE 5.8 mph - N/A   Clear
10:51 PM 43.0 °F 39.5 °F 28.0 °F 56% 30.39 in 10.0 mi East 5.8 mph - N/A   Clear
11:51 PM 42.1 °F 38.4 °F 28.0 °F 58% 30.39 in 10.0 mi East 5.8 mph - N/A   Clear